FREGAT DEB, 45843

Orbit data source: Space-Track

FREGAT DEB, 45843 is space debris in LEO originally from a launch on Mon, 18 Jul 2011 UTC launched from the Tyuratam Missile And Space Complex (TTMTR). Debris objects in space refer to the collection of defunct objects orbiting the Earth. Examples of debris include non-operational satellites, rocket bodies, and fragments generated from explosions, collisions, or faulty payload assembly.

Loading next visibility...
Identifier
45843, 2011-037CD
Orbit
LEO
Country
Flag of CISCIS
Related business
Manufacturer
Lavochkin
Mission
Spacecraft
Bus & Motor
Unknown
Mass
Unknown
Launch date (UTC)
2011-07-18 (14 years ago)
Launch vehicle
Unknown
Launch site
Tyuratam Missile And Space Complex (TTMTR)
Object type
Payload
Rocket body
Debris
Shape & HBR
Unknown shape, 0.1 m
Radar Cross Section
Small (<0.1 m²)

Expand to show TLE details & history
Last TLE update: 1 day ago

TLE from 1 day ago
0 FREGAT DEB
1 45843U 11037CD  25349.49303766  .00005011  00000-0  43147-1 0  9994
2 45843  51.2228  89.4135 1717596 107.7050 271.7996 10.23791774 25843
Epoch: 2025-12-15T11:49Z
TLE epoch observation values (Epoch: 2025-12-15T11:49:58.453Z)
Latitude
-0.00005°
Longitude
-172.47091°
Altitude
2,794.246 km
Speed
6.515 km/s
True Right ascension
05h 57m 39s
True Declination
0° 00' 00"
Sunlit
Object was in full shadow at epoch
Visualization orbit readout
Latitude
Unknown
Longitude
Unknown
Altitude
Unknown
Speed
Unknown
Apparent Right ascension
Unknown
Apparent Declination
Unknown
Sunlit
N/A
Visualization observer readout
Local Sidereal Time
12:38:05
Azimuth
Unknown
Elevation
Unknown
Doppler factor
Unknown
Orbital elements
Apogee altitude
4,120.225 km
Perigee altitude
1,042.47 km
Semi-major axis
8,959.485 km
Eccentricity
0.17176
Inclination
51.2228°
RAAN
89.4135°
Arg. of periapsis
107.705°
True anomaly
252.37262°
Mean anomaly
271.7996°
Eccentric anomaly
262.05301°
Mean motion
2.55928 °/min
Orbital period
140.66 mins
BSTAR
0.043147
Loading maneuver chart data...
Computing Atmospheric mass density...
Loading historical data...
Loading historical data...
Loading historical data...
Loading historical data...
Loading historical data...
Loading historical data...
Loading historical data...

Documentation

Showing up to 5 results
|